Luverne, MN

11:50 PM CDT on July 25, 2017 (GMT -0500)
Luverne

Weather History for KLYV - March, 2013

Change the Weather History Date:

Saturday, March 2, 2013

  Actual Average (KPQN) Record (KPQN)
Temperature  
Mean Temperature 19 °F -  
Max Temperature 30 °F 27 °F 39 °F (1999)
Min Temperature 8 °F 13 °F -14 °F (2014)
Degree Days  
Heating Degree Days 46    
Moisture  
Dew Point 15 °F    
Average Humidity 79    
Maximum Humidity 93    
Minimum Humidity 64    
Precipitation  
Precipitation 0.00 in - - ()
Sea Level Pressure  
Sea Level Pressure 30.22 in    
Wind  
Wind Speed 4 mph (South)    
Max Wind Speed 10 mph    
Max Gust Speed -    
Visibility 10 miles    
Events Snow    
Averages and records for this station are not official NWS values.
T = Trace of Precipitation, MM = Missing Value Source: NWS Daily Summary

Daily Weather History Graph

Daily Weather History Graph

Search for Another Location

Airport or City:

Trip Planner

Search our weather history database for the weather conditions in past years. The results will help you decide how hot, cold, wet, or windy it might be!

Date:

Astronomy

Mar. 02, 2013 Rise Set
Actual Time 6:59 AM CST 6:15 PM CST
Civil Twilight 6:30 AM CST 6:44 PM CST
Nautical Twilight 5:57 AM CST 7:17 PM CST
Astronomical Twilight 5:24 AM CST 7:50 PM CST
Moon No Moon Rise 9:17 AM CST (3/2)
Length of Visible Light 12h 13m
Length of Day
11h 16m
Waning Gibbous, 74% of the Moon is Illuminated
Mar 2
Waning Gibbous
Mar 4
Last Quarter
Mar 11
New
Mar 19
First Quarter
Mar 27
Full

Hourly Weather History & Observations

Time (CST) Temp. Windchill Dew Point Humidity Pressure Visibility Wind Dir Wind Speed Gust Speed Precip Events Conditions
12:17 AM 12.2 °F 6.1 °F 10.4 °F 92% 30.34 in 10.0 mi NW 3.5 mph - N/A   Clear
12:36 AM 12.2 °F 6.1 °F 10.4 °F 92% 30.33 in 10.0 mi NNW 3.5 mph - N/A   Clear
12:57 AM 12.2 °F 6.1 °F 10.4 °F 92% 30.33 in 10.0 mi NNW 3.5 mph - N/A   Clear
1:17 AM 12.2 °F - 8.6 °F 85% 30.33 in 10.0 mi Calm Calm - N/A   Clear
1:36 AM 10.4 °F 2.2 °F 6.8 °F 85% 30.33 in 10.0 mi NW 4.6 mph - N/A   Clear
1:57 AM 8.6 °F 2.0 °F 5.0 °F 85% 30.33 in 10.0 mi WNW 3.5 mph - N/A   Clear
2:17 AM 10.4 °F 0.8 °F 6.8 °F 85% 30.33 in 10.0 mi NW 5.8 mph - N/A   Clear
2:37 AM 10.4 °F 0.8 °F 6.8 °F 85% 30.33 in 10.0 mi NW 5.8 mph - N/A   Clear
2:57 AM 10.4 °F - 6.8 °F 85% 30.32 in 10.0 mi Calm Calm - N/A   Clear
3:16 AM 8.6 °F - 5.0 °F 85% 30.31 in 10.0 mi Calm Calm - N/A   Clear
3:57 AM 8.6 °F 2.0 °F 5.0 °F 85% 30.32 in 5.0 mi NNW 3.5 mph - N/A   Clear
4:16 AM 8.6 °F 2.0 °F 5.0 °F 85% 30.31 in 10.0 mi NNW 3.5 mph - N/A Snow Light Snow
4:37 AM 8.6 °F - 5.0 °F 85% 30.31 in 10.0 mi Calm Calm - N/A   Clear
4:56 AM 8.6 °F - 5.0 °F 85% 30.31 in 10.0 mi Calm Calm - N/A   Clear
5:16 AM 10.4 °F - 6.8 °F 85% 30.30 in 10.0 mi Calm Calm - N/A   Clear
5:37 AM 8.6 °F - 5.0 °F 85% 30.30 in 10.0 mi Calm Calm - N/A   Clear
5:56 AM 8.6 °F - 5.0 °F 85% 30.31 in 10.0 mi Calm Calm - N/A   Clear
6:16 AM 10.4 °F - 5.0 °F 79% 30.31 in 10.0 mi Calm Calm - N/A   Clear
6:37 AM 8.6 °F - 5.0 °F 85% 30.31 in 10.0 mi Calm Calm - N/A   Clear
6:56 AM 8.6 °F - 3.2 °F 79% 30.30 in 10.0 mi Calm Calm - N/A   Clear
7:16 AM 8.6 °F - 5.0 °F 85% 30.30 in 10.0 mi Calm Calm - N/A   Clear
7:37 AM 10.4 °F - 5.0 °F 79% 30.30 in 10.0 mi Calm Calm - N/A   Clear
7:56 AM 10.4 °F - 6.8 °F 85% 30.30 in 7.0 mi Calm Calm - N/A   Clear
8:17 AM 12.2 °F - 8.6 °F 85% 30.30 in 7.0 mi Calm Calm - N/A   Clear
8:37 AM 12.2 °F - 8.6 °F 85% 30.30 in 7.0 mi Calm Calm - N/A   Clear
8:57 AM 14.0 °F - 10.4 °F 86% 30.29 in 7.0 mi Calm Calm - N/A   Scattered Clouds
9:17 AM 15.8 °F - 12.2 °F 86% 30.27 in 5.0 mi Calm Calm - N/A   Mostly Cloudy
9:36 AM 17.6 °F - 15.8 °F 93% 30.27 in 7.0 mi Calm Calm - N/A   Scattered Clouds
9:57 AM 19.4 °F - 17.6 °F 93% 30.26 in 10.0 mi Calm Calm - N/A   Clear
10:17 AM 21.2 °F 14.9 °F 17.6 °F 86% 30.26 in 10.0 mi South 4.6 mph - N/A   Clear
10:36 AM 21.2 °F 16.4 °F 17.6 °F 86% 30.27 in 10.0 mi South 3.5 mph - N/A   Scattered Clouds
10:57 AM 23.0 °F 17.0 °F 17.6 °F 80% 30.26 in 10.0 mi SSW 4.6 mph - N/A   Scattered Clouds
11:17 AM 23.0 °F 15.8 °F 17.6 °F 80% 30.26 in 10.0 mi SW 5.8 mph - N/A   Scattered Clouds
11:36 AM 23.0 °F 15.8 °F 17.6 °F 80% 30.25 in 10.0 mi SSW 5.8 mph - N/A   Scattered Clouds
11:57 AM 24.8 °F 17.9 °F 17.6 °F 74% 30.25 in 10.0 mi SSW 5.8 mph - N/A   Scattered Clouds
12:17 PM 24.8 °F 16.9 °F 17.6 °F 74% 30.24 in 10.0 mi South 6.9 mph - N/A   Mostly Cloudy
12:36 PM 24.8 °F 16.9 °F 17.6 °F 74% 30.24 in 10.0 mi SSW 6.9 mph - N/A   Overcast
12:57 PM 26.6 °F 19.1 °F 17.6 °F 69% 30.22 in 10.0 mi South 6.9 mph - N/A   Overcast
1:17 PM 26.6 °F 20.0 °F 19.4 °F 74% 30.21 in 10.0 mi South 5.8 mph - N/A   Overcast
1:36 PM 28.4 °F 20.4 °F 17.6 °F 64% 30.21 in 10.0 mi SSE 8.1 mph - N/A   Overcast
1:57 PM 26.6 °F 18.2 °F 19.4 °F 74% 30.21 in 10.0 mi SSW 8.1 mph - N/A   Overcast
2:17 PM 28.4 °F 21.2 °F 19.4 °F 69% 30.20 in 10.0 mi SSE 6.9 mph - N/A   Overcast
2:36 PM 28.4 °F 21.2 °F 19.4 °F 69% 30.18 in 10.0 mi South 6.9 mph - N/A   Overcast
2:56 PM 28.4 °F 19.1 °F 19.4 °F 69% 30.16 in 10.0 mi South 10.4 mph - N/A   Overcast
3:17 PM 28.4 °F 19.1 °F 19.4 °F 69% 30.16 in 10.0 mi South 10.4 mph - N/A   Overcast
3:36 PM 28.4 °F 19.1 °F 19.4 °F 69% 30.16 in 10.0 mi South 10.4 mph - N/A   Overcast
3:57 PM 28.4 °F 21.2 °F 21.2 °F 74% 30.16 in 10.0 mi South 6.9 mph - N/A   Overcast
4:17 PM 30.2 °F 22.6 °F 19.4 °F 64% 30.14 in 10.0 mi SSE 8.1 mph - N/A   Overcast
4:36 PM 30.2 °F 22.6 °F 19.4 °F 64% 30.14 in 10.0 mi SSE 8.1 mph - N/A   Overcast
4:57 PM 28.4 °F 19.7 °F 19.4 °F 69% 30.14 in 10.0 mi SSE 9.2 mph - N/A   Scattered Clouds
5:37 PM 28.4 °F 19.7 °F 21.2 °F 74% 30.12 in 10.0 mi SSE 9.2 mph - N/A   Clear
5:57 PM 28.4 °F 21.2 °F 21.2 °F 74% 30.13 in 10.0 mi SSE 6.9 mph - N/A   Clear
6:17 PM 28.4 °F 21.2 °F 21.2 °F 74% 30.13 in 10.0 mi SSE 6.9 mph - N/A   Mostly Cloudy
6:37 PM 28.4 °F 20.4 °F 21.2 °F 74% 30.13 in 10.0 mi South 8.1 mph - N/A   Overcast
6:56 PM 26.6 °F 18.2 °F 21.2 °F 80% 30.13 in 10.0 mi South 8.1 mph - N/A   Mostly Cloudy
7:17 PM 26.6 °F 18.2 °F 21.2 °F 80% 30.13 in 10.0 mi South 8.1 mph - N/A   Mostly Cloudy
7:37 PM 24.8 °F 19.1 °F 21.2 °F 86% 30.12 in 10.0 mi SSE 4.6 mph - N/A   Scattered Clouds
7:56 PM 26.6 °F 20.0 °F 19.4 °F 74% 30.12 in 10.0 mi SSE 5.8 mph - N/A   Clear
8:17 PM 26.6 °F 21.2 °F 19.4 °F 74% 30.12 in 10.0 mi SSE 4.6 mph - N/A   Clear
8:37 PM 26.6 °F 20.0 °F 19.4 °F 74% 30.12 in 10.0 mi SSE 5.8 mph - N/A   Clear
8:56 PM 26.6 °F 20.0 °F 19.4 °F 74% 30.11 in 10.0 mi SSE 5.8 mph - N/A   Scattered Clouds
9:17 PM 26.6 °F 19.1 °F 19.4 °F 74% 30.10 in 10.0 mi SSE 6.9 mph - N/A   Scattered Clouds
9:37 PM 26.6 °F 20.0 °F 19.4 °F 74% 30.10 in 10.0 mi SSE 5.8 mph - N/A   Mostly Cloudy
9:56 PM 26.6 °F 18.2 °F 19.4 °F 74% 30.09 in 10.0 mi SSE 8.1 mph - N/A   Mostly Cloudy
10:17 PM 26.6 °F 18.2 °F 19.4 °F 74% 30.08 in 10.0 mi SE 8.1 mph - N/A   Scattered Clouds
10:37 PM 26.6 °F 19.1 °F 21.2 °F 80% 30.08 in 10.0 mi SSE 6.9 mph - N/A   Mostly Cloudy
10:56 PM 26.6 °F 20.0 °F 21.2 °F 80% 30.07 in 10.0 mi SSE 5.8 mph - N/A   Overcast
11:17 PM 26.6 °F 19.1 °F 21.2 °F 80% 30.06 in 10.0 mi SSE 6.9 mph - N/A   Scattered Clouds
11:37 PM 26.6 °F 19.1 °F 21.2 °F 80% 30.05 in 10.0 mi SSE 6.9 mph - N/A   Clear
11:56 PM 26.6 °F 20.0 °F 21.2 °F 80% 30.05 in 10.0 mi SSE 5.8 mph - N/A   Clear